Location: Franzen
(48.6167°N, 15.3833°E)
Time: 13:38:44
(UTC+00:00)

Cosmos 1655 Rocket - Pass Details

Date: 07 August 2021
Orbit: 969 x 1007 km, 82.9° (Epoch: 25 September)

Event Time Altitude Azimuth Distance (km) Brightness Sun altitude
Exits shadow 21:16:09 - 216° (SW) 3,295 6.5 -20.9°
Reaches altitude 10° 21:17:40 10° 221° (SW) 2,775 6.2 -21.0°
Maximum altitude 21:23:34 39° 289° (WNW) 1,483 5.3 -21.5°
Drops below altitude 10° 21:29:32 10° 357° (N) 2,796 7.4 -21.9°
Sets 21:32:18 0° 5° (N) 3,749 8.1 -22.1°
